Pineville, MO (64856)

5:39 PM CST on February 08, 2016 (GMT -0600)
Brush Creek | | Change Station
CLOSE
Current Station
Personal Weather Station
Location: Noel, MO
Elevation: 1056 ft
Nearby Weather Stations
Active Advisory: Wind Advisory

Elev 1056 ft 36.51 °N, 94.34 °W | Updated 11 seconds ago

Partly Cloudy
Partly Cloudy
38.7 °F
Feels Like 30 °F
N
16.1
Wind Variable Wind from North
Gusts 19.9 mph

Today
High -- | Low -- °F
--% Chance of Precip.
Yesterday
High -- | Low -- °F
Precip. -- in
Pressure 30.09 in
Visibility 10.0 miles
Clouds Mostly Cloudy 6000 ft
Windchill 30 °F
Dew Point 11 °F
Humidity 32%
Rainfall 0.00 in
Snow Depth Not available.
7:13 AM 5:50 PM
New Moon, 0% visible
METAR KVBT 082335Z AUTO 34014G18KT 10SM BKN060 03/M11 A3009 RMK AO1
Pressure 30.09 in
Visibility 10.0 miles
Clouds Mostly Cloudy 6000 ft
Windchill 30 °F
Dew Point 11 °F
Humidity 32%
Rainfall 0.00 in
Snow Depth Not available.
7:13 AM 5:50 PM
New Moon, 0% visible
METAR KVBT 082335Z AUTO 34014G18KT 10SM BKN060 03/M11 A3009 RMK AO1

10-Day Weather Forecast

Almanac

Astronomy

Feb. 08, 2016 Rise Set
Actual Time
Civil Twilight
Nautical Twilight
Astronomical Twilight
Moon
Length of Visible Light
Length of Day
Tomorrow will be .
, % of the Moon is Illuminated

Today's Extremes

State Highs State Lows

Community

WunderPhotos

Upload Photos

1,891,525 photos uploaded!

WunderBlog® & News

Nearby

Air Quality

  Air Quality AQ Index Pollutant
Not available.

Snow Depth

Station Depth Elevation

Earthquake Activity

City Distance Mag. Time & Date
Minimum magnitude displayed is 2.5.

Coastal Water Temperatures

Place Temperature

Stations

Nearby Weather Stations

Station Location Temp. Windchill Dew Point Humidity Wind Precip. Elev Updated Type
                   

Watches & Warnings

Wind Advisory
Issued: 12:50 PM CST Feb. 8, 2016 – National Weather Service

... Wind Advisory remains in effect until 6 PM CST this evening...

* timing... northwesterly winds will continue to be very gusty
through the remainder of the afternoon hours.

* Winds... northwesterly winds of 25 to 35 mph with gusts of 40
to 45 mph are expected.

* Impacts... strong Crosswinds on area highways will impact
travel including interstates 44 and 49... and Missouri state
highways 13... 54... 63... 65... and 60. High profile vehicles
will be especially impacted by the winds.

Precautionary/preparedness actions...

A Wind Advisory means that winds of 35 mph are expected.
Travelers should use extra caution.



Boxell